GW7237 Weather Reports


time (UTC)temp
F
wind
direction
speed
knots
gust
knots
rain 1hr
in
rain 24hr
in
rain mn
in
humidity
%
barometer
mb
20260508025515 57 277 0.0 2.6 0.00 0.00 0.00 42 1013.9
20260508025015 57 287 0.0 2.6 0.00 0.00 0.00 42 1013.8
20260508024512 57 300 0.0 0.9 0.00 0.00 0.00 41 1013.6
20260508024012 57 286 0.0 0.9 0.00 0.00 0.00 41 1013.6
20260508023511 57 297 0.0 0.9 0.00 0.00 0.00 41 1013.4
20260508023012 57 297 0.0 1.7 0.00 0.00 0.00 42 1013.3
20260508022511 56 297 0.0 1.7 0.00 0.00 0.00 40 1013.3
20260508022013 55 294 0.0 1.7 0.00 0.00 0.00 41 1013.4
20260508021512 55 260 0.0 0.0 0.00 0.00 0.00 47 1013.2
20260508020010 56 260 0.0 0.9 0.00 0.00 0.00 44 1012.9
20260508015508 56 260 0.0 0.9 0.00 0.00 0.00 43 1012.8
20260508015008 56 260 0.0 0.9 0.00 0.00 0.00 45 1012.7
20260508014508 56 260 0.0 0.9 0.00 0.00 0.00 44 1012.6
20260508013508 57 259 0.0 0.0 0.00 0.00 0.00 44 1012.5
20260508013008 58 259 0.0 0.0 0.00 0.00 0.00 45 1012.5
20260508012509 58 259 0.0 0.0 0.00 0.00 0.00 39 1012.3
20260508012009 59 259 0.0 0.0 0.00 0.00 0.00 38 1012.5
20260508011505 60 259 0.0 0.0 0.00 0.00 0.00 38 1012.5
20260508011004 61 259 0.0 0.0 0.00 0.00 0.00 37 1012.3
20260508010005 61 259 0.0 0.9 0.00 0.00 0.00 33 1012.2
20260508005504 61 259 0.0 0.9 0.00 0.00 0.00 34 1012.3
20260508005006 61 259 0.0 0.9 0.00 0.00 0.00 36 1012.3
20260508004507 61 259 0.0 0.9 0.00 0.00 0.00 33 1012.3
20260508004007 62 259 0.0 0.9 0.00 0.00 0.00 32 1012.3
20260508003006 62 259 0.0 0.9 0.00 0.00 0.00 29 1012.2
20260508002504 62 259 0.0 0.0 0.00 0.00 0.00 32 1012.1
20260508002005 62 259 0.0 0.9 0.00 0.00 0.00 30 1012.1
20260508001503 63 259 0.0 0.9 0.00 0.00 0.00 28 1012.1
20260508000959 63 259 0.0 0.9 0.00 0.00 0.00 27 1012.2
20260508000459 63 259 0.0 1.7 0.00 0.00 0.00 28 1012.3
20260507235959 63 250 0.0 1.7 0.00 0.00 0.00 29 1012.5
20260507235458 62 254 0.0 1.7 0.00 0.00 0.00 28 1012.3
20260507234457 63 259 0.9 3.5 0.00 0.00 0.00 28 1012.5
20260507233956 64 272 0.0 3.5 0.00 0.00 0.00 28 1012.3
20260507232956 64 267 0.9 7.8 0.00 0.01 0.00 27 1012.5
20260507232459 65 254 0.9 7.8 0.00 0.01 0.00 26 1012.5
20260507231959 65 277 0.9 6.1 0.00 0.01 0.00 27 1012.5
20260507230948 65 250 0.0 6.1 0.00 0.01 0.00 29 1012.3
20260507225935 66 296 0.0 2.6 0.00 0.02 0.00 28 1012.5
20260507225429 66 278 0.0 3.5 0.00 0.02 0.00 27 1012.5
20260507224923 65 291 0.0 3.5 0.00 0.02 0.00 30 1012.5
20260507224418 65 290 0.0 3.5 0.00 0.02 0.00 28 1012.5
20260507223912 65 338 0.9 6.1 0.00 0.03 0.00 31 1012.6
20260507222353 64 279 0.0 3.5 0.00 0.05 0.00 31 1012.8
20260507221851 64 268 0.0 1.7 0.00 0.06 0.00 29 1012.8
20260507221347 64 243 0.9 8.7 0.00 0.06 0.00 29 1012.9
20260507220847 63 256 0.9 8.7 0.00 0.07 0.00 28 1012.9
20260507220347 63 283 0.0 6.1 0.00 0.07 0.00 30 1013.2
20260507215847 64 261 0.0 6.1 0.00 0.08 0.00 30 1013.1
20260507214847 62 290 1.7 9.6 0.00 0.08 0.00 32 1013.2
20260507214345 62 279 1.7 9.6 0.00 0.09 0.00 33 1013.3
20260507213843 61 269 1.7 8.7 0.00 0.09 0.00 32 1013.3
20260507213344 61 248 0.9 7.0 0.00 0.10 0.00 33 1013.3
20260507212845 62 248 0.9 5.2 0.00 0.10 0.00 31 1013.4
20260507212343 62 242 0.0 1.7 0.00 0.10 0.00 33 1013.3
20260507211841 62 288 0.9 3.5 0.00 0.11 0.00 33 1013.4
20260507211342 62 291 0.9 7.0 0.00 0.11 0.00 32 1013.6
20260507210842 63 285 0.9 8.7 0.00 0.12 0.00 31 1013.6
20260507210342 64 237 0.9 8.7 0.00 0.12 0.00 32 1013.7
20260507205842 64 278 0.9 4.3 0.00 0.13 0.00 32 1013.7
20260507204830 64 243 0.9 7.8 0.00 0.14 0.00 30 1013.8
20260507204324 64 283 0.9 7.8 0.00 0.15 0.00 35 1013.8
20260507203818 64 262 0.9 7.8 0.00 0.15 0.00 32 1013.9
20260507203312 64 268 0.9 3.5 0.00 0.16 0.00 31 1014.0
20260507202806 63 199 0.0 3.5 0.00 0.16 0.00 33 1014.0
20260507202300 63 246 0.9 7.0 0.00 0.17 0.00 31 1014.0
20260507201754 63 242 0.9 7.0 0.00 0.18 0.00 31 1014.2
20260507201248 63 281 0.9 7.8 0.00 0.19 0.00 34 1014.3
20260507200742 63 252 0.9 7.8 0.00 0.20 0.00 32 1014.3
20260507200236 62 240 0.9 3.5 0.00 0.21 0.00 32 1014.2
20260507195730 62 271 0.9 3.5 0.00 0.23 0.00 31 1014.3
20260507195224 63 271 0.9 3.5 0.00 0.24 0.00 31 1014.3
20260507194718 62 271 0.9 6.1 0.00 0.25 0.00 32 1014.4
20260507194212 62 237 0.9 6.1 0.00 0.27 0.00 35 1014.4
20260507193706 62 274 0.9 5.2 0.00 0.28 0.00 33 1014.4
20260507193200 62 259 0.9 8.7 0.00 0.30 0.00 32 1014.4
20260507192654 62 284 0.9 8.7 0.00 0.32 0.00 32 1014.4
20260507192148 62 226 0.0 1.7 0.00 0.33 0.00 37 1014.4
20260507191642 61 223 0.9 6.1 0.00 0.34 0.00 36 1014.5
20260507191136 61 263 0.9 6.1 0.00 0.35 0.00 38 1014.6
20260507190630 61 229 0.9 7.0 0.00 0.36 0.00 35 1014.6
20260507190124 60 240 0.0 7.0 0.00 0.37 0.00 36 1014.8
20260507185112 60 213 0.0 3.5 0.00 0.38 0.00 37 1014.9
20260507184606 60 165 0.0 3.5 0.00 0.38 0.00 39 1014.9
20260507184100 59 170 0.0 1.7 0.00 0.39 0.00 37 1014.9
20260507182542 59 265 0.0 0.9 0.00 0.41 0.00 38 1015.1
20260507181529 58 236 0.0 2.6 0.00 0.42 0.00 43 1015.1
20260507180518 57 200 0.0 0.0 0.00 0.43 0.00 40 1015.3
20260507180012 57 188 0.0 0.0 0.00 0.44 0.00 40 1015.3
20260507175506 57 236 0.0 0.0 0.00 0.44 0.00 42 1015.3
20260507175000 56 190 0.0 0.0 0.00 0.45 0.00 39 1015.3
20260507173442 56 259 0.0 0.0 0.00 0.47 0.00 40 1015.4
20260507172937 56 252 0.0 0.0 0.00 0.47 0.00 41 1015.4
20260507172430 56 237 0.0 0.0 0.00 0.47 0.00 40 1015.4
20260507171924 56 177 0.0 4.3 0.00 0.47 0.00 42 1015.5
20260507171418 56 193 0.9 4.3 0.00 0.47 0.00 41 1015.6
20260507170406 55 187 0.0 2.6 0.00 0.47 0.00 41 1015.7
20260507165900 55 222 0.0 0.0 0.00 0.47 0.00 42 1015.7
20260507165354 55 240 0.0 0.0 0.00 0.47 0.00 40 1015.9
20260507164849 55 194 0.0 1.7 0.00 0.47 0.00 40 1016.0
20260507164342 56 169 0.0 1.7 0.00 0.47 0.00 40 1016.0
20260507163837 55 203 0.0 3.5 0.00 0.47 0.00 42 1016.0
20260507163330 55 184 0.0 3.5 0.00 0.47 0.00 42 1016.0
20260507162824 55 209 0.0 6.1 0.00 0.47 0.00 42 1016.1
20260507161812 54 182 0.0 1.7 0.00 0.47 0.00 42 1016.1
20260507161312 53 205 0.0 1.7 0.00 0.47 0.00 42 1016.2
20260507160315 53 258 0.0 0.0 0.00 0.47 0.00 43 1016.2
20260507155811 53 207 0.0 0.0 0.00 0.47 0.00 44 1016.2
20260507155311 52 190 0.0 0.0 0.00 0.47 0.00 45 1016.2
20260507154810 52 186 0.0 0.0 0.00 0.47 0.00 45 1016.3
20260507154307 51 209 0.0 0.9 0.00 0.47 0.00 45 1016.2
20260507153805 51 184 0.0 0.9 0.00 0.47 0.00 44 1016.2
20260507152803 50 175 0.0 0.0 0.00 0.47 0.00 45 1016.3
20260507152306 50 196 0.0 0.0 0.00 0.48 0.00 45 1016.2
20260507151801 50 186 0.0 0.0 0.00 0.48 0.00 46 1016.1
20260507151303 49 191 0.0 0.0 0.00 0.48 0.00 46 1016.2
20260507150759 49 191 0.0 0.0 0.00 0.48 0.00 46 1016.2
20260507145758 48 186 0.0 0.0 0.00 0.48 0.00 47 1016.2
20260507145258 48 202 0.0 0.0 0.00 0.48 0.00 45 1016.2
20260507144758 47 209 0.0 0.0 0.00 0.48 0.00 45 1016.2
20260507144252 47 184 0.0 0.9 0.00 0.48 0.00 45 1016.2
20260507143755 47 199 0.0 0.9 0.00 0.48 0.00 44 1016.3
20260507143252 47 206 0.0 0.0 0.00 0.48 0.00 44 1016.2
20260507142250 46 175 0.0 0.0 0.00 0.48 0.00 45 1016.2
20260507141750 45 191 0.0 0.0 0.00 0.48 0.00 46 1016.2
20260507140752 44 190 0.0 0.0 0.00 0.48 0.00 47 1016.2
20260507140251 44 190 0.0 0.0 0.00 0.48 0.00 47 1016.3
20260507135751 43 227 0.0 0.0 0.00 0.48 0.00 47 1016.3
20260507135252 43 208 0.0 0.0 0.00 0.48 0.00 48 1016.2
20260507134753 43 224 0.0 0.0 0.00 0.48 0.00 48 1016.2
20260507134247 42 219 0.0 0.0 0.00 0.48 0.00 48 1016.1
20260507133748 42 240 0.0 0.0 0.00 0.48 0.00 48 1016.0
20260507133248 42 241 0.0 0.0 0.00 0.48 0.00 48 1016.0
20260507132747 42 239 0.0 0.0 0.00 0.48 0.00 48 1016.0
20260507132246 42 227 0.0 0.0 0.00 0.48 0.00 48 1016.0
20260507131747 41 212 0.0 0.0 0.00 0.48 0.00 48 1016.1
20260507131248 41 206 0.0 0.0 0.00 0.48 0.00 49 1016.0
20260507130248 40 196 0.0 0.0 0.00 0.48 0.00 50 1015.9
20260507125744 40 196 0.0 0.0 0.00 0.48 0.00 50 1016.0
20260507125243 39 196 0.0 0.0 0.00 0.48 0.00 50 1016.0
20260507124743 39 198 0.0 0.0 0.00 0.48 0.00 51 1015.9
20260507124244 39 198 0.0 0.0 0.00 0.48 0.00 50 1015.7
20260507123743 39 200 0.0 0.0 0.00 0.48 0.00 50 1015.6
20260507123243 38 188 0.0 0.0 0.00 0.48 0.00 50 1015.5
20260507122743 38 184 0.0 0.0 0.00 0.48 0.00 51 1015.5
20260507122243 38 184 0.0 0.0 0.00 0.48 0.00 52 1015.4
20260507121744 38 182 0.0 0.0 0.00 0.48 0.00 52 1015.4
20260507121244 37 193 0.0 0.0 0.00 0.48 0.00 52 1015.4
20260507120742 37 194 0.0 0.0 0.00 0.48 0.00 52 1015.4
20260507120242 38 194 0.0 0.0 0.00 0.48 0.00 52 1015.4
20260507115744 38 194 0.0 0.0 0.00 0.48 0.00 50 1015.4
20260507115244 37 191 0.0 0.0 0.00 0.48 0.00 50 1015.5
20260507114243 37 194 0.0 0.0 0.00 0.48 0.00 51 1015.5
20260507112738 37 190 0.0 0.0 0.00 0.48 0.00 52 1015.6
20260507111222 36 215 0.0 0.0 0.00 0.48 0.00 55 1015.4
20260507110716 35 196 0.0 0.0 0.00 0.48 0.00 57 1015.4
20260507105704 36 196 0.0 0.0 0.00 0.48 0.00 57 1015.5
20260507105158 36 195 0.0 0.0 0.00 0.48 0.00 56 1015.5
20260507104652 36 198 0.0 0.0 0.00 0.48 0.00 55 1015.6
20260507103640 36 196 0.0 0.0 0.00 0.48 0.00 57 1015.5
20260507103134 36 194 0.0 0.0 0.00 0.48 0.00 57 1015.4
20260507102628 36 194 0.0 0.0 0.00 0.48 0.00 56 1015.5
20260507101617 37 192 0.0 0.0 0.00 0.48 0.00 55 1015.5
20260507101107 37 192 0.0 0.0 0.00 0.48 0.00 54 1015.6
20260507100601 37 192 0.0 1.7 0.00 0.48 0.00 53 1015.6
20260507100055 37 193 0.0 1.7 0.00 0.48 0.00 53 1015.6
20260507095549 37 184 0.0 0.0 0.00 0.48 0.00 54 1015.6
20260507095043 36 192 0.0 0.0 0.00 0.48 0.00 55 1015.6
20260507094537 36 192 0.0 0.0 0.00 0.48 0.00 57 1015.7
20260507094031 35 195 0.0 0.0 0.00 0.48 0.00 59 1015.9
20260507093022 35 194 0.0 0.0 0.00 0.48 0.00 60 1015.7
20260507092516 35 192 0.0 0.0 0.00 0.48 0.00 61 1015.9
20260507092010 35 191 0.0 0.0 0.00 0.48 0.00 60 1015.7
20260507091504 35 202 0.0 0.0 0.00 0.48 0.00 60 1015.9
20260507090958 35 200 0.0 0.0 0.00 0.48 0.00 61 1015.9
20260507090452 35 200 0.0 0.0 0.00 0.48 0.00 61 1015.9
20260507085946 35 196 0.0 0.0 0.00 0.48 0.00 60 1015.7
20260507085440 36 199 0.0 2.6 0.00 0.48 0.00 60 1015.7
20260507084933 36 198 0.0 2.6 0.00 0.48 0.00 60 1015.9
20260507084426 36 195 0.0 0.0 0.00 0.48 0.00 60 1015.9
20260507083920 36 195 0.0 0.0 0.00 0.48 0.00 59 1015.9
20260507083414 36 215 0.0 0.9 0.00 0.48 0.00 60 1016.0
20260507082908 36 205 0.0 0.9 0.00 0.48 0.00 61 1016.0
20260507082402 35 201 0.0 0.0 0.00 0.48 0.00 62 1016.0
20260507081856 35 192 0.0 0.0 0.00 0.48 0.00 63 1016.0
20260507081350 35 197 0.0 0.0 0.00 0.48 0.00 65 1016.0
20260507080844 35 194 0.0 0.0 0.00 0.48 0.00 66 1016.0
20260507080338 34 196 0.0 0.0 0.00 0.48 0.00 67 1016.0
20260507075832 34 200 0.0 0.0 0.00 0.48 0.00 68 1016.0
20260507074820 33 200 0.0 0.0 0.00 0.48 0.00 71 1016.2
20260507074313 33 200 0.0 0.0 0.00 0.48 0.00 73 1016.3
20260507073808 33 200 0.0 0.0 0.00 0.48 0.00 73 1016.6
20260507072756 33 199 0.0 0.0 0.00 0.48 0.00 73 1016.6
20260507071238 34 200 0.0 0.0 0.00 0.48 0.00 73 1016.6
20260507070732 34 200 0.0 0.0 0.00 0.48 0.00 74 1016.5
20260507070226 34 200 0.0 0.0 0.00 0.48 0.00 74 1016.3
20260507065720 34 200 0.0 0.0 0.00 0.48 0.00 74 1016.5
20260507065214 34 200 0.0 0.0 0.00 0.48 0.00 75 1016.5
20260507064708 33 202 0.0 0.0 0.00 0.48 0.00 78 1016.5
20260507064202 33 202 0.0 0.0 0.00 0.48 0.00 79 1016.6
20260507063656 32 202 0.0 0.0 0.00 0.48 0.00 81 1016.7
20260507063150 32 202 0.0 0.0 0.00 0.48 0.00 81 1016.7
20260507062137 32 202 0.0 0.0 0.00 0.48 0.00 82 1016.6
20260507061632 32 202 0.0 0.0 0.00 0.48 0.00 82 1016.5
20260507061126 32 202 0.0 0.0 0.00 0.48 0.00 83 1016.5
20260507060115 32 202 0.0 0.0 0.00 0.48 0.00 83 1016.6
20260507055608 32 202 0.0 0.0 0.00 0.48 0.48 83 1016.6
20260507055102 33 202 0.0 0.0 0.00 0.48 0.48 83 1016.7
20260507054556 33 202 0.0 0.0 0.00 0.48 0.48 82 1016.7
20260507053544 33 202 0.0 0.0 0.00 0.48 0.48 82 1016.6
20260507053038 33 202 0.0 0.0 0.00 0.48 0.48 82 1016.6
20260507052532 33 202 0.0 0.0 0.00 0.48 0.48 82 1016.6
20260507052025 33 202 0.0 0.0 0.00 0.48 0.48 82 1016.6
20260507051520 33 206 0.0 0.0 0.00 0.48 0.48 82 1016.6
20260507051014 33 207 0.0 0.0 0.00 0.48 0.48 82 1016.3
20260507050508 33 207 0.0 0.0 0.00 0.48 0.48 83 1016.3
20260507050002 33 207 0.0 0.0 0.00 0.48 0.48 83 1016.3
20260507045456 33 207 0.0 0.0 0.00 0.48 0.48 83 1016.5
20260507044950 33 203 0.0 0.0 0.00 0.48 0.48 83 1016.5
20260507044444 33 203 0.0 0.0 0.00 0.48 0.48 84 1016.6
20260507043938 33 201 0.0 0.0 0.00 0.48 0.48 84 1016.6
20260507043432 33 200 0.0 0.0 0.00 0.48 0.48 84 1016.5
20260507041914 33 196 0.0 0.0 0.00 0.48 0.48 85 1016.3
20260507041408 33 190 0.0 0.0 0.00 0.48 0.48 86 1016.3
20260507040902 33 190 0.0 0.0 0.00 0.48 0.48 86 1016.2
20260507040356 33 188 0.0 0.0 0.00 0.48 0.48 86 1016.2
20260507035850 33 171 0.0 0.0 0.00 0.48 0.48 87 1016.2
20260507035344 33 171 0.0 0.0 0.00 0.48 0.48 86 1016.2
20260507034838 33 142 0.0 0.0 0.00 0.48 0.48 86 1016.2
20260507034332 33 137 0.0 0.0 0.00 0.48 0.48 86 1016.2
20260507033827 33 137 0.0 0.0 0.00 0.48 0.48 86 1016.2
20260507033320 33 136 0.0 0.9 0.00 0.48 0.48 86 1016.1
20260507031802 33 134 0.0 0.0 0.00 0.48 0.48 86 1016.1
20260507031256 33 134 0.0 0.0 0.00 0.48 0.48 86 1016.1
20260507030750 33 134 0.0 0.0 0.00 0.48 0.48 87 1016.0
20260507030244 32 134 0.0 0.0 0.00 0.48 0.48 87 1016.0